Location: Killam
(52.7910°N, 111.8608°W)
Time: 12:39:10
(UTC+00:00)

BlueWalker 3 - Visible Passes

Search period start: 21 January 2026 00:00
Search period end: 31 January 2026 00:00
Orbit: 451 x 463 km, 53.2° (Epoch: 20 January)

Date Brightness Start Highest point End Pass type
(mag) Time Alt. Az. Time Alt. Az. Time Alt. Az.
21 Jan 4.2 01:48:15 10° SSE 01:48:24 10° SSE 01:48:24 10° SSE visible
22 Jan 4.2 02:47:30 10° SW 02:48:29 17° SSW 02:48:29 17° SSW visible
23 Jan 3.1 02:12:15 10° SSW 02:14:42 28° S 02:14:42 28° S visible
24 Jan 3.0 01:37:00 10° SSW 01:40:03 26° SE 01:40:51 24° ESE visible
24 Jan 4.5 03:13:38 10° WSW 03:14:35 17° WSW 03:14:35 17° WSW visible
25 Jan 3.3 01:01:48 10° SSW 01:04:38 22° SE 01:06:54 13° E visible
25 Jan 2.8 02:38:09 10° WSW 02:40:38 41° SW 02:40:38 41° SW visible
26 Jan 1.8 02:02:41 10° WSW 02:06:12 62° SSE 02:06:37 56° ESE visible
26 Jan 5.1 03:40:05 10° W 03:40:21 12° W 03:40:21 12° W visible
27 Jan 2.1 01:27:11 10° SW 01:30:40 54° SSE 01:32:32 24° E visible
27 Jan 3.8 03:04:31 10° W 03:06:16 27° W 03:06:16 27° W visible
28 Jan 2.3 00:51:41 10° SW 00:55:07 46° SSE 00:58:24 11° E visible
28 Jan 1.9 02:28:55 10° W 02:32:08 70° W 02:32:08 70° W visible
29 Jan 1.6 01:53:17 10° W 01:56:52 88° NNW 01:57:57 43° E visible
29 Jan 4.7 03:30:50 10° W 03:31:41 16° W 03:31:41 16° W visible
30 Jan 1.7 01:17:39 10° WSW 01:21:14 87° S 01:23:45 18° E visible
30 Jan 3.2 02:55:11 10° W 02:57:28 37° W 02:57:28 37° W visible
